EHI
0 0 0 0 0 0 0 0 0 0 0 0 0 0 0 0 0 0 0 0 0 0 1 2 2 1 2 3 5 6 6 6 5 4 3 1 0 0 0 0 0 0 0 0
0 0 0 0 0 0 0 0 0 0 0 0 0 0 0 0 0 0 0 0 0 0 0 1 1 2 3 4 6 6 6 5 4 3 2 1 0 0 0 0 0 0 0 0
0 0 0 0 0 0 0 0 0 0 0 0 0 0 0 0 0 0 0 0 0 0 0 0 1 2 2 4 6 7 6 4 3 3 2 1 0 0 0 0 0 0 0 0
0 0 0 0 0 0 0 0 0 0 0 0 0 0 0 0 0 0 0 0 0 0 0 0 0 1 1 2 5 6 6 4 3 3 3 1 0 0 0 0 0 0 0 0
0 0 0 0 0 0 0 0 0 0 0 0 0 0 0 0 0 0 0 0 0 0 0 0 0 0 0 1 3 5 5 4 3 3 3 2 1 0 0 0 0 0 0 0
0 0 0 0 0 0 0 0 0 0 0 0 0 0 0 0 0 0 0 0 0 0 0 0 0 0 0 1 2 3 3 3 3 3 3 3 2 1 0 0 0 0 0 0
0 0 0 0 0 0 0 0 0 0 0 0 0 0 0 0 0 0 0 0 0 0 0 0 0 0 0 0 1 1 1 2 2 3 3 3 2 1 0 0 0 0 0 0
0 0 0 0 0 0 0 0 0 0 0 0 0 0 0 0 0 0 0 0 0 0 0 0 0 0 0 0 0 0 0 1 1 1 2 2 2 1 0 0 0 0 0 0
0 0 0 0 0 0 0 0 0 0 0 0 0 0 0 0 0 0 0 0 0 0 0 0 0 0 0 0 0 0 0 0 0 0 1 1 1 0 0 0 0 0 0 0
0 0 0 0 0 0 0 0 0 0 0 0 0 0 0 0 0 0 0 0 0 0 0 0 0 0 0 0 0 0 0 0 0 0 0 1 0 0 0 0 0 0 0 0
0 0 0 0 0 0 0 0 0 0 0 0 0 0 0 0 0 0 0 0 0 0 0 0 0 0 0 0 0 0 0 0 0 0 0 0 0 0 0 0 0 0 0 0
0 0 0 0 0 0 0 0 0 0 0 0 0 0 0 0 0 0 0 0 0 0 0 0 0 0 0 0 0 0 0 0 0 0 0 0 0 0 0 0 0 0 0 0
0 0 0 0 0 0 0 0 0 0 0 0 0 0 0 0 0 0 0 0 0 0 0 0 0 0 0 0 0 0 0 0 0 0 0 0 0 0 0 0 0 0 0 0
0 0 0 0 0 0 0 0 0 0 0 0 0 0 0 0 0 0 0 0 0 0 0 0 0 0 0 0 0 0 0 0 0 0 0 0 0 0 0 0 0 0 0 0
0 0 0 0 0 0 0 0 0 0 0 0 0 0 0 0 0 0 0 0 0 0 0 0 0 0 0 0 0 0 0 0 0 0 0 0 0 0 0 0 0 0 0 0
0 0 0 0 0 0 0 0 0 0 0 0 0 0 0 0 0 0 0 0 0 0 0 0 0 0 0 0 0 0 0 0 0 0 0 0 0 0 0 0 0 0 0 0
0 0 0 0 0 0 0 0 0 0 0 0 0 0 0 0 0 0 0 0 0 0 0 0 0 0 0 0 0 0 0 0 0 0 0 0 0 0 0 0 0 0 0 0
0 0 0 0 0 0 0 0 0 0 0 0 0 0 0 0 0 0 0 0 0 0 0 0 0 0 0 0 0 0 0 0 0 0 0 0 0 0 0 0 0 0 0 0
0 0 0 0 0 0 0 0 0 0 0 0 0 0 0 0 0 0 0 0 0 0 0 0 0 0 0 0 0 0 0 0 0 0 0 0 0 0 0 0 0 0 0 0
0 0 0 0 0 0 0 0 0 0 0 0 0 0 0 0 0 0 0 0 0 0 0 0 0 0 0 0 0 0 0 0 0 0 0 0 0 0 0 0 0 0 0 0
0 0 0 0 0 0 0 0 0 0 0 0 0 0 0 0 0 0 0 0 0 0 0 0 0 0 0 0 0 0 0 0 0 0 0 0 0 0 0 0 0 0 0 0
0 0 0 0 0 0 0 0 0 0 0 0 0 0 0 0 0 0 0 0 0 0 0 0 0 0 0 0 0 0 0 0 0 0 0 0 0 0 0 0 0 0 0 0
0 0 0 0 0 0 0 0 0 0 0 0 0 0 0 0 0 0 0 0 0 0 0 0 0 0 0 0 0 0 0 0 0 0 0 0 0 0 0 0 0 0 0 0
0 0 0 0 0 0 0 0 0 0 0 0 0 0 0 0 0 0 0 0 0 0 0 0 0 0 0 0 0 0 0 0 0 0 0 0 0 0 0 0 0 0 0 0
0 0 0 0 0 0 0 0 0 0 0 0 0 0 0 0 0 0 0 0 0 0 0 0 0 0 0 0 0 0 0 0 0 0 0 0 0 0 0 0 0 0 0 0
0 0 0 0 0 0 0 0 0 0 0 0 0 0 0 0 0 0 0 0 0 0 0 0 0 0 0 0 0 0 0 0 0 0 0 0 0 0 0 0 0 0 0 0
Wind_Speed
1 0 2 3 3 5 5 7 9 7 4 5 9 12 10 7 7 6 5 4 3 2 2 1 1 1 1 1 1 0 1 1 0 0 0 0 1 1 1 1 1 1 1 1
1 2 3 4 4 4 6 8 9 7 4 6 9 13 11 8 6 5 4 4 3 2 2 1 0 0 1 1 1 1 1 1 0 0 1 1 1 1 1 1 1 1 2 1
3 1 3 4 3 4 6 6 7 8 10 8 7 10 6 4 3 3 3 2 2 3 3 2 1 1 2 2 2 1 1 2 1 0 0 1 0 1 1 1 1 1 2 2
2 2 4 4 4 4 6 4 6 8 7 5 2 5 5 5 4 4 3 2 2 2 1 1 1 2 2 2 2 2 2 2 1 1 1 1 1 2 2 2 1 1 1 2
2 2 3 3 4 4 5 6 7 8 7 7 5 5 6 3 3 3 2 1 1 0 1 1 1 2 2 2 2 2 2 1 1 1 1 2 2 1 1 1 2 2 1 2
3 2 1 2 3 4 5 6 6 6 3 6 6 5 5 2 3 1 1 1 1 1 1 2 2 2 2 1 1 1 2 2 1 1 2 2 2 1 1 1 2 2 1 1
2 2 1 1 3 2 3 2 2 2 3 6 2 3 5 1 2 2 2 2 1 2 2 2 3 2 2 2 2 2 2 2 2 2 2 2 2 2 3 3 2 2 2 2
3 3 2 1 0 2 3 2 1 3 4 3 2 5 3 2 3 3 2 2 2 3 3 3 3 3 2 3 3 3 3 3 3 3 3 2 2 2 2 3 3 3 2 3
2 3 1 1 1 1 2 1 1 2 4 4 5 3 0 4 4 4 3 3 3 3 4 4 3 3 3 3 4 4 3 3 3 3 3 2 2 2 3 3 3 2 3 2
2 4 2 0 1 1 2 1 0 1 2 5 5 3 2 2 3 3 3 4 4 5 5 6 4 4 3 3 4 4 3 3 3 3 3 3 3 3 3 3 3 3 3 3
1 2 3 1 2 2 1 1 2 3 3 3 4 3 1 2 2 2 4 4 4 5 5 5 5 4 3 3 3 4 4 3 3 3 3 3 3 3 3 3 4 3 3 3
1 2 4 3 1 0 2 2 2 2 4 4 4 5 1 3 3 3 4 4 5 5 5 5 5 5 4 4 3 3 3 3 3 3 3 3 3 3 3 3 4 3 3 4
0 1 3 2 1 0 1 2 3 2 2 4 4 7 1 4 4 4 5 5 6 6 6 6 5 6 6 5 4 4 3 4 3 3 3 3 3 3 3 3 3 3 4 4
1 2 5 5 4 2 4 4 4 3 4 5 7 9 7 6 6 6 6 6 6 6 6 6 6 6 7 6 5 5 5 5 4 3 3 3 4 4 4 4 4 4 4 4
1 3 5 7 8 6 7 8 6 8 8 7 8 8 10 7 6 5 5 6 6 6 6 6 7 7 7 7 7 6 5 6 5 4 4 4 4 4 4 4 4 4 4 4
1 3 4 6 7 7 10 10 8 8 8 9 10 11 7 6 5 5 5 6 7 7 7 7 8 8 8 8 8 8 7 7 6 4 4 4 4 4 4 4 4 4 4 3
2 2 2 4 3 5 8 7 8 6 6 5 8 7 6 7 7 5 6 7 6 6 7 7 7 7 8 8 8 8 7 7 6 5 4 4 3 3 3 4 3 4 3 3
3 2 3 4 3 7 6 0 2 3 4 4 4 5 5 6 7 5 4 5 6 7 7 7 7 7 7 7 7 7 7 6 5 5 5 4 4 3 3 3 3 3 3 3
3 3 3 3 4 8 4 0 1 1 4 3 4 5 6 6 5 3 4 4 5 6 6 6 6 6 7 7 7 7 7 6 6 5 6 5 4 3 3 3 3 3 3 3
1 2 3 4 4 6 3 0 1 0 3 3 2 4 5 6 4 4 7 7 7 6 6 6 6 6 6 6 6 6 7 6 6 6 6 6 5 4 3 4 3 3 3 3
2 3 5 5 5 7 2 0 1 1 4 3 2 3 3 3 4 6 7 7 7 6 6 6 6 6 6 6 6 7 7 7 6 6 6 6 5 4 4 3 3 3 3 2
5 4 5 4 5 7 1 2 2 3 3 2 3 3 4 5 7 7 7 7 7 7 7 6 6 6 6 6 6 7 7 8 7 6 6 6 5 4 3 3 3 2 2 1
5 5 4 5 6 2 3 3 2 1 3 3 3 4 4 6 7 7 6 6 6 7 7 6 6 6 6 5 5 6 8 8 7 7 6 6 6 4 3 2 2 2 1 1
3 1 2 5 5 3 3 3 3 3 4 4 4 4 4 6 7 7 6 6 6 6 6 6 6 6 7 6 6 6 7 7 7 7 6 6 5 4 3 2 2 1 1 1
3 3 3 6 6 5 3 3 3 3 4 4 5 4 4 5 7 7 6 6 5 6 5 5 5 6 7 7 6 7 7 7 7 6 6 5 4 4 3 3 2 2 1 1
3 5 5 5 3 3 5 3 3 4 5 5 5 5 4 4 6 6 6 5 5 5 5 6 6 6 7 7 6 6 6 6 6 6 5 4 3 3 3 3 3 4 3 4
Wind_Direction
176 238 248 263 245 264 286 280 281 286 296 288 267 268 266 253 246 241 231 224 205 199 179 156 144 125 297 272 161 218 328 326 44 75 68 282 276 278 232 192 193 206 217 241
229 242 278 291 292 283 280 281 284 290 300 288 274 271 264 249 233 222 221 213 197 193 157 148 172 68 275 203 181 215 300 303 262 231 233 234 249 251 248 205 194 198 211 222
238 305 319 287 288 285 269 268 288 298 306 266 265 275 232 219 203 198 207 202 190 201 179 187 213 261 245 212 194 232 268 289 272 254 264 311 306 276 264 235 215 217 214 209
274 290 300 292 275 281 272 298 293 291 294 283 250 282 249 207 204 193 198 193 189 212 197 197 235 291 258 220 201 210 235 275 276 240 226 220 238 241 260 249 232 225 212 211
281 321 312 292 297 289 279 301 280 274 273 278 243 245 264 190 207 195 172 167 124 194 235 260 267 275 266 226 207 208 228 258 268 266 237 225 242 252 268 262 234 214 202 199
257 281 318 316 310 292 295 291 273 255 254 258 230 216 267 205 218 183 131 70 27 338 307 294 294 279 284 276 233 225 234 253 245 250 253 243 232 232 238 258 245 218 212 217
257 210 137 347 304 296 319 322 322 289 233 244 189 216 251 154 99 91 78 39 355 351 331 312 305 296 291 295 285 251 242 247 250 248 248 245 237 220 221 229 237 235 221 220
298 275 135 82 10 300 276 275 260 271 272 303 253 233 237 79 84 71 64 56 21 358 339 316 313 308 296 299 300 275 245 246 242 241 249 250 245 232 232 234 232 229 228 223
308 277 48 13 301 308 298 274 331 287 288 277 254 241 74 47 43 46 43 29 1 347 341 327 315 303 299 298 296 284 259 250 245 243 245 245 244 247 245 245 242 233 229 227
316 283 262 243 258 247 298 318 333 237 283 278 270 250 270 1 3 7 17 1 342 347 341 333 322 308 293 286 286 292 269 251 252 243 238 244 243 247 245 240 245 241 235 226
297 258 271 224 210 214 187 240 258 262 259 273 285 283 28 96 58 6 346 347 339 336 331 329 321 310 304 300 298 298 287 269 261 246 237 240 247 249 240 237 244 246 241 230
297 282 269 246 197 343 190 211 193 214 267 251 271 274 46 70 58 18 342 337 333 336 335 330 327 325 330 323 309 300 305 273 259 254 244 240 248 251 248 248 248 247 245 241
350 241 295 290 296 33 262 235 225 234 263 250 247 264 0 11 4 356 343 338 338 340 341 341 342 341 338 327 319 318 316 299 279 266 254 252 253 254 254 256 258 252 249 245
288 235 222 244 275 281 269 261 233 212 230 251 242 268 298 324 329 334 334 332 332 336 340 343 341 340 336 328 327 328 325 316 299 281 264 254 254 257 261 264 266 262 252 244
289 256 253 267 281 279 264 260 239 226 232 244 267 278 289 308 311 317 326 328 332 334 338 340 340 338 331 333 335 331 326 323 310 289 273 263 260 262 266 268 270 268 258 251
231 266 285 273 262 265 269 262 248 244 249 257 274 280 291 305 319 329 333 330 326 329 335 338 339 335 332 333 330 331 330 325 317 303 288 280 262 259 260 260 264 267 260 256
210 223 267 271 288 298 271 245 224 227 230 234 253 270 323 329 328 326 320 321 321 327 332 332 329 325 325 326 325 324 320 321 319 315 310 310 300 266 257 259 261 258 259 258
195 215 245 278 306 253 250 84 172 219 258 245 262 295 320 314 308 304 309 320 326 328 329 326 323 322 323 322 323 320 318 321 320 321 320 313 306 295 282 271 264 264 266 257
207 205 244 259 267 271 268 19 63 244 287 272 270 298 317 328 319 316 355 351 328 326 322 317 315 314 318 321 322 321 323 325 325 324 320 312 305 299 296 285 277 275 272 262
266 210 227 241 254 256 268 32 17 71 282 329 328 313 327 348 334 311 345 342 331 327 325 323 322 320 322 323 325 323 322 325 323 320 315 311 306 299 292 287 282 278 268 258
180 207 221 236 249 263 270 292 37 207 267 334 342 323 327 313 276 299 324 328 328 324 324 323 322 322 321 324 327 322 323 320 316 316 317 316 310 301 294 293 289 274 267 262
190 196 208 212 231 254 140 114 184 246 317 326 321 318 306 298 301 311 317 322 326 325 325 324 321 317 319 327 330 324 322 320 323 322 322 322 314 307 309 302 297 287 271 255
209 204 205 210 225 239 173 200 226 285 296 298 304 306 304 301 303 308 312 315 316 318 319 320 316 315 322 330 331 321 320 325 327 327 325 325 321 316 313 302 300 308 306 291
224 186 243 268 269 268 242 243 255 249 258 280 284 287 288 288 295 301 305 309 312 314 315 317 320 320 321 325 327 319 321 326 325 325 323 323 327 326 327 321 315 319 317 319
230 178 234 258 278 302 278 264 282 286 278 278 282 277 274 282 292 296 300 305 309 314 315 317 317 314 315 319 323 323 325 327 326 322 319 321 325 323 326 330 322 318 306 313
211 200 210 240 255 256 288 316 315 295 287 285 289 294 288 275 284 293 295 298 304 309 315 317 317 316 317 321 323 325 327 328 324 322 324 325 327 327 330 336 343 341 340 344